Regional Weather Roundup
Issued by NWS

Home | Current Version | Previous Version | Text Only | Print | Product List | Glossary On
Versions: 1 2 3 4 5 6 7 8 9 10 11 12 13 14 15 16 17 18 19 20 21 22 23 24 25 26 27 28 29 30 31 32 33 34 35 36 37 38 39 40 41 42 43 44 45 46 47 48 49 50
000
ASUS44 KJAN 220910
RWRMS

MISSISSIPPI HOURLY WEATHER ROUNDUP
NATIONAL WEATHER SERVICE JACKSON MS
400 AM CDT SAT JUL 22 2017

NOTE: "FAIR: INDICATES FEW OR NO CLOUDS BELOW 12,000 FEET WITH NO
SIGNIFICANT WEATHER AND/OR OBSTRUCTIONS TO VISIBILITY.

MSZ001>002-007>008-010>013-018>021-025>028-034>036-221000-
NORTHWEST MISSISSIPPI

CITY           SKY/WX    TMP DP  RH WIND       PRES   REMARKS
BATESVILLE     FAIR      76  72  88 CALM      29.96S
CLARKSDALE       N/A     77  77 100 S5        29.94F
CLEVELAND      FAIR      75  75 100 S5        29.94F
GREENWOOD      CLEAR     75  74  96 CALM      29.95F
GREENVILLE     CLEAR     74  71  91 S3        29.94F
OXFORD         FAIR      75  73  94 CALM      29.98S
TUNICA           N/A     73  73 100 S3        29.95R
WINONA         FAIR      74  74 100 CALM      29.96F
$$

MSZ003>006-009-014>017-022>024-029>033-037>039-221000-
NORTHEAST MISSISSIPPI

CITY           SKY/WX    TMP DP  RH WIND       PRES   REMARKS
COLUMBUS AFB   CLEAR     74  74 100 CALM      29.94F
CORINTH        FAIR      77  75  94 S3        29.95S
GOLDN TRIANGLE CLEAR     73  66  78 S6          N/A
STARKVILLE     FAIR      72  70  94 CALM      29.97S
TUPELO         CLEAR     78  72  81 CALM      29.95F
$$

MSZ040-058-221000-
CENTRAL MISSISSIPPI

CITY           SKY/WX    TMP DP  RH WIND       PRES   REMARKS
JACKSON INTL   CLEAR     74  72  93 CALM      29.98S
JACKSON HAWKNS PTCLDY    75  73  93 CALM      29.99R
MADISON        FAIR      72  70  94 CALM      29.98S
MERIDIAN KEY   CLEAR     73  72  96 S6        29.99R
MERIDIAN NAS   CLEAR     73  69  87 CALM      29.99R
RAYMOND        FAIR      73  72  94 CALM      29.97F
VICKSBURG VKS    N/A     73  72  94 CALM      29.94S
$$

MSZ059>079-221000-
SOUTH MISSISSIPPI

CITY           SKY/WX    TMP DP  RH WIND       PRES   REMARKS
COLUMBIA       FAIR      72  70  94 CALM      30.01S FOG
HATTIESBURG    CLEAR     73  72  96 CALM      30.00R
LAUREL         FAIR      73  73 100 CALM      29.99S
MCCOMB         PTCLDY    73  71  93 CALM      30.00R
NATCHEZ        NOT AVBL
PINE BELT      PTCLDY    72  72 100 CALM      30.00S
$$

MSZ080>082-221000-
COASTAL MISSISSIPPI

CITY           SKY/WX    TMP DP  RH WIND       PRES   REMARKS
BILOXI         MOCLDY    76  73  90 SE5       29.98R THUNDER
PASCAGOULA     TSTM      75  73  93 CALM      29.99R
GULFPORT       MOCLDY    76  73  91 N3        29.97S THUNDER
$$

LAZ007>009-015>016-023>026-221000-
NORTHEAST LOUISIANA

CITY           SKY/WX    TMP DP  RH WIND       PRES   REMARKS
BASTROP        FAIR      77  76  98 CALM      29.97R
TALLULAH/VBURG CLEAR     74  72  93 CALM      29.96S
VIDALIA        FAIR      74  74 100 CALM      29.97S
$$



USA.gov is the U.S. government's official web portal to all federal, state and local government web resources and services.